• In Deutschland
  • Länderverzeichnis
  • Für 7 Tage
  • Wassertemperatur
  • Satellitenkarten
  • Wetterkarte
  • Widgets
  • user-avatar
    Anmelden

    Stündliche Wetter Aschersleben

    Heute, 18 September, Dienstag

    Zeit Temperatur Niederschläge Wind Luftdruck Luftfeuchtigkeit
    00:00 +19°C° 0 mm 1 m/S 749 mmHg 58%
    01:00 +17°C° 0 mm 2 m/S 749 mmHg 57%
    02:00 +17°C° 0 mm 2 m/S 749 mmHg 59%
    03:00 +17°C° 0 mm 2 m/S 749 mmHg 60%
    04:00 +16°C° 0 mm 2 m/S 748 mmHg 62%
    05:00 +16°C° 0 mm 2 m/S 748 mmHg 63%
    06:00 +17°C° 0 mm 2 m/S 748 mmHg 63%
    07:00 +17°C° 0 mm 3 m/S 748 mmHg 61%
    08:00 +19°C° 0 mm 3 m/S 748 mmHg 57%
    09:00 +22°C° 0 mm 3 m/S 748 mmHg 53%
    10:00 +25°C° 0 mm 3 m/S 748 mmHg 49%
    11:00 +27°C° 0 mm 4 m/S 748 mmHg 44%
    12:00 +28°C° 0 mm 4 m/S 748 mmHg 40%
    13:00 +30°C° 0 mm 4 m/S 748 mmHg 35%
    14:00 +30°C° 0 mm 4 m/S 747 mmHg 36%
    15:00 +30°C° 0 mm 4 m/S 747 mmHg 36%
    16:00 +30°C° 0 mm 4 m/S 747 mmHg 37%
    17:00 +28°C° 0 mm 4 m/S 747 mmHg 43%
    18:00 +26°C° 0 mm 3 m/S 747 mmHg 50%
    19:00 +24°C° 0 mm 3 m/S 747 mmHg 56%
    20:00 +22°C° 0 mm 3 m/S 748 mmHg 59%
    21:00 +21°C° 0 mm 3 m/S 748 mmHg 62%
    22:00 +21°C° 0 mm 3 m/S 749 mmHg 65%
    23:00 +20°C° 0.2 mm 3 m/S 749 mmHg 69%

    Morgen, 19 September, Mittwoch

    Zeit Temperatur Niederschläge Wind Luftdruck Luftfeuchtigkeit
    00:00 +19°C° 0.2 mm 2 m/S 749 mmHg 74%
    01:00 +19°C° 0.2 mm 2 m/S 749 mmHg 78%
    02:00 +18°C° 0.1 mm 2 m/S 749 mmHg 79%
    03:00 +19°C° 0.1 mm 1 m/S 749 mmHg 80%
    04:00 +19°C° 0.1 mm 1 m/S 750 mmHg 82%
    05:00 +19°C° 0 mm 1 m/S 750 mmHg 82%
    06:00 +19°C° 0 mm 1 m/S 750 mmHg 82%
    07:00 +19°C° 0 mm 1 m/S 750 mmHg 81%
    08:00 +21°C° 0 mm 1 m/S 750 mmHg 74%
    09:00 +23°C° 0 mm 2 m/S 751 mmHg 67%
    10:00 +25°C° 0 mm 2 m/S 751 mmHg 59%
    11:00 +26°C° 0 mm 3 m/S 751 mmHg 54%
    12:00 +28°C° 0 mm 3 m/S 750 mmHg 50%
    13:00 +29°C° 0 mm 3 m/S 750 mmHg 45%
    14:00 +29°C° 0 mm 3 m/S 750 mmHg 44%
    15:00 +30°C° 0 mm 3 m/S 750 mmHg 44%
    16:00 +30°C° 0 mm 4 m/S 749 mmHg 43%
    17:00 +28°C° 0 mm 3 m/S 749 mmHg 49%
    18:00 +26°C° 0 mm 3 m/S 749 mmHg 55%
    19:00 +24°C° 0 mm 2 m/S 749 mmHg 61%
    20:00 +24°C° 0.1 mm 2 m/S 750 mmHg 64%
    21:00 +22°C° 0.1 mm 3 m/S 750 mmHg 67%
    22:00 +21°C° 0.1 mm 3 m/S 750 mmHg 69%
    23:00 +21°C° 0 mm 3 m/S 750 mmHg 72%

    übermorgen, 20 September, Donnerstag

    Zeit Temperatur Niederschläge Wind Luftdruck Luftfeuchtigkeit
    00:00 +20°C° 0 mm 3 m/S 750 mmHg 75%
    01:00 +19°C° 0 mm 3 m/S 750 mmHg 78%
    02:00 +19°C° 0 mm 2 m/S 750 mmHg 81%
    03:00 +18°C° 0 mm 2 m/S 750 mmHg 84%
    04:00 +18°C° 0 mm 2 m/S 750 mmHg 87%
    05:00 +18°C° 0 mm 2 m/S 750 mmHg 86%
    06:00 +19°C° 0 mm 1 m/S 750 mmHg 85%
    07:00 +19°C° 0 mm 1 m/S 750 mmHg 85%
    08:00 +20°C° 0 mm 2 m/S 750 mmHg 76%
    09:00 +23°C° 0 mm 2 m/S 750 mmHg 67%
    10:00 +25°C° 0 mm 3 m/S 750 mmHg 58%
    11:00 +26°C° 0 mm 4 m/S 750 mmHg 53%
    12:00 +27°C° 0 mm 4 m/S 750 mmHg 49%
    13:00 +28°C° 0 mm 5 m/S 749 mmHg 44%
    14:00 +28°C° 0 mm 5 m/S 749 mmHg 43%
    15:00 +28°C° 0 mm 5 m/S 748 mmHg 43%
    16:00 +28°C° 0 mm 5 m/S 748 mmHg 42%
    17:00 +26°C° 0 mm 4 m/S 748 mmHg 48%
    18:00 +25°C° 0 mm 3 m/S 747 mmHg 53%
    19:00 +23°C° 0 mm 2 m/S 747 mmHg 59%
    20:00 +21°C° 0 mm 2 m/S 747 mmHg 61%
    21:00 +20°C° 0 mm 2 m/S 747 mmHg 63%
    22:00 +20°C° 0 mm 2 m/S 746 mmHg 65%
    23:00 +20°C° 0 mm 3 m/S 746 mmHg 67%

    21 September, Freitag

    Zeit Temperatur Niederschläge Wind Luftdruck Luftfeuchtigkeit
    00:00 +19°C° 0 mm 3 m/S 745 mmHg 69%
    01:00 +19°C° 0 mm 3 m/S 745 mmHg 71%
    02:00 +19°C° 0 mm 4 m/S 744 mmHg 71%
    03:00 +20°C° 0 mm 4 m/S 744 mmHg 71%
    04:00 +20°C° 0 mm 5 m/S 743 mmHg 71%
    05:00 +20°C° 0 mm 5 m/S 743 mmHg 69%
    06:00 +20°C° 0 mm 5 m/S 743 mmHg 68%
    07:00 +21°C° 0 mm 5 m/S 743 mmHg 67%
    08:00 +22°C° 0.3 mm 6 m/S 742 mmHg 63%
    09:00 +23°C° 0.3 mm 7 m/S 742 mmHg 60%
    10:00 +24°C° 0.3 mm 7 m/S 742 mmHg 56%
    11:00 +24°C° 0 mm 7 m/S 741 mmHg 53%
    12:00 +24°C° 0 mm 8 m/S 741 mmHg 51%
    13:00 +26°C° 0 mm 8 m/S 741 mmHg 49%
    14:00 +22°C° 1.7 mm 8 m/S 741 mmHg 58%
    15:00 +18°C° 1.7 mm 8 m/S 741 mmHg 68%
    16:00 +15°C° 1.7 mm 8 m/S 742 mmHg 78%
    17:00 +14°C° 1 mm 7 m/S 742 mmHg 79%
    18:00 +13°C° 1 mm 6 m/S 743 mmHg 80%
    19:00 +13°C° 1 mm 5 m/S 744 mmHg 80%
    20:00 +12°C° 0.2 mm 5 m/S 745 mmHg 79%
    21:00 +12°C° 0.2 mm 5 m/S 746 mmHg 78%
    22:00 +10°C° 0.2 mm 6 m/S 747 mmHg 77%
    23:00 +9°C° 0 mm 5 m/S 747 mmHg 78%

    22 September, Samstag

    Zeit Temperatur Niederschläge Wind Luftdruck Luftfeuchtigkeit
    00:00 +9°C° 0 mm 5 m/S 748 mmHg 78%
    01:00 +8°C° 0 mm 5 m/S 749 mmHg 78%
    02:00 +8°C° 0 mm 5 m/S 749 mmHg 78%
    03:00 +8°C° 0 mm 5 m/S 750 mmHg 77%
    04:00 +7°C° 0 mm 5 m/S 750 mmHg 77%
    05:00 +8°C° 0 mm 5 m/S 751 mmHg 78%
    06:00 +8°C° 0 mm 5 m/S 751 mmHg 80%
    07:00 +8°C° 0 mm 5 m/S 752 mmHg 81%
    08:00 +10°C° 0 mm 6 m/S 752 mmHg 74%
    09:00 +11°C° 0 mm 6 m/S 752 mmHg 67%
    10:00 +14°C° 0 mm 6 m/S 753 mmHg 60%
    11:00 +15°C° 0 mm 6 m/S 753 mmHg 57%
    12:00 +15°C° 0 mm 6 m/S 753 mmHg 53%
    13:00 +16°C° 0 mm 6 m/S 753 mmHg 49%
    14:00 +16°C° 0.2 mm 6 m/S 752 mmHg 50%
    15:00 +16°C° 0.2 mm 6 m/S 752 mmHg 50%
    16:00 +16°C° 0.2 mm 6 m/S 752 mmHg 50%
    17:00 +14°C° 0.1 mm 5 m/S 752 mmHg 55%
    18:00 +13°C° 0.1 mm 4 m/S 753 mmHg 61%
    19:00 +11°C° 0.1 mm 3 m/S 753 mmHg 66%
    20:00 +12°C° 0 mm 2 m/S 753 mmHg 68%
    21:00 +10°C° 0 mm 2 m/S 753 mmHg 70%
    22:00 +9°C° 0 mm 2 m/S 753 mmHg 71%
    23:00 +9°C° 0 mm 2 m/S 753 mmHg 72%

    23 September, Sonntag

    Zeit Temperatur Niederschläge Wind Luftdruck Luftfeuchtigkeit
    00:00 +9°C° 0 mm 2 m/S 753 mmHg 73%
    01:00 +9°C° 0 mm 2 m/S 753 mmHg 75%
    02:00 +9°C° 0 mm 2 m/S 753 mmHg 74%
    03:00 +9°C° 0 mm 2 m/S 753 mmHg 74%
    04:00 +9°C° 0 mm 2 m/S 752 mmHg 73%
    05:00 +10°C° 0 mm 2 m/S 752 mmHg 73%
    06:00 +10°C° 0 mm 3 m/S 751 mmHg 73%
    07:00 +10°C° 0 mm 3 m/S 750 mmHg 73%
    08:00 +10°C° 0 mm 5 m/S 750 mmHg 67%
    09:00 +13°C° 0 mm 6 m/S 749 mmHg 61%
    10:00 +14°C° 0 mm 7 m/S 748 mmHg 56%
    11:00 +15°C° 0.1 mm 8 m/S 747 mmHg 55%
    12:00 +16°C° 0.1 mm 8 m/S 745 mmHg 53%
    13:00 +17°C° 0.1 mm 9 m/S 744 mmHg 52%
    14:00 +16°C° 1.1 mm 9 m/S 743 mmHg 60%
    15:00 +16°C° 1.1 mm 8 m/S 741 mmHg 67%
    16:00 +15°C° 1.1 mm 8 m/S 740 mmHg 74%
    17:00 +16°C° 0.5 mm 8 m/S 738 mmHg 76%
    18:00 +16°C° 0.5 mm 8 m/S 737 mmHg 77%
    19:00 +17°C° 0.5 mm 7 m/S 736 mmHg 78%
    20:00 +16°C° 1 mm 7 m/S 735 mmHg 78%
    21:00 +15°C° 1 mm 7 m/S 734 mmHg 77%
    22:00 +15°C° 1 mm 7 m/S 733 mmHg 76%
    23:00 +12°C° 0 mm 8 m/S 733 mmHg 74%
    Mehr zeigen